FLTSATCOM 8 (USA 46)

Last updated on Tue Sep 22 2026 00:03:10 GMT+0000 (Coordinated Universal Time)

1 20253U 89077A 26264.60315875 -.00000363 00000+0 00000+0 0 9999 2 20253 12.3967 350.5706 0003054 230.1708 122.6272 1.00269725261521
UTC large
Height (km)
Speed (km/s)
/
Latitude / Longitude
Inclination (degrees)
Orbital Period (minutes)
Azimuth
Elevation
Range (km)
Doppler Factor

Next 0 passes for location: London (51.5072 / 0.1276)

No passes found over London.
FLTSATCOM 8 (USA 46)